Regional Weather Roundup
Issued by NWS Northern Indiana

Home | Current Version | Previous Version | Graphics & Text | Print | Product List | Glossary On
Versions: 1 2 3 4 5 6 7 8 9 10 11 12 13 14 15 16 17 18 19 20 21 22 23 24 25 26 27 28 29 30 31 32 33 34 35 36 37 38 39 40 41 42 43 44 45 46 47 48 49 50
000
ASUS43 KIWX 311200
RWRIWX

KIWX WEATHER ROUNDUP
NATIONAL WEATHER SERVICE NORTHERN INDIANA
700 AM EST SAT JAN 31 2015

NOTE: "FAIR" INDICATES FEW OR NO CLOUDS BELOW 12,000 FEET WITH NO
SIGNIFICANT WEATHER AND/OR OBSTRUCTIONS TO VISIBILITY.

* THESE STATIONS ARE NOT UNDER NWS QUALITY CONTROL. THEY ALSO MAY NOT
  REPORT WEATHER SUCH AS PRECIPITATION OR FOG.

INZ001>027-311300-
NORTHERN INDIANA

CITY           SKY/WX    TMP DP  RH WIND       PRES   REMARKS
GARY*          PTCLDY    28  19  69 VRB3      30.28S
SOUTH BEND     CLEAR     21  16  81 SW8       30.27F WCI  11
6HR MIN TEMP:  15; 6HR MAX TEMP:  21;

GOSHEN         MOCLDY    21  16  81 SW8       30.28F WCI  11
6HR MIN TEMP:  16; 6HR MAX TEMP:  22;

ANGOLA*        CLOUDY    16  12  86 CALM      30.27S
FORT WAYNE     MOCLDY    21  17  84 SW8       30.31F WCI  11
6HR MIN TEMP:  16; 6HR MAX TEMP:  21;

PERU/GRISSOM   CLOUDY    22  18  83 S8        30.30F WCI  12
6HR MIN TEMP:  16; 6HR MAX TEMP:  22;


$$
INZ028>050-311300-
CENTRAL INDIANA

CITY           SKY/WX    TMP DP  RH WIND       PRES   REMARKS
LAFAYETTE      CLEAR     20  16  84 CALM      30.33S
6HR MIN TEMP:  18; 6HR MAX TEMP:  21;

KOKOMO*        PTCLDY    21  16  79 S7        30.32S WCI  13
6HR MIN TEMP:  19; 6HR MAX TEMP:  23;

MUNCIE*        CLOUDY    21  15  78 S6        30.32S WCI  13
6HR MIN TEMP:  19; 6HR MAX TEMP:  22;

INDIANAPOLIS   PTCLDY    18  14  84 S3        30.34R
6HR MIN TEMP:  16; 6HR MAX TEMP:  20;


$$
MIZ043>046-050>051-056>058-064>065-071>073-077>080-311300-
SOUTHWEST LOWER MICHIGAN

CITY           SKY/WX    TMP DP  RH WIND       PRES   REMARKS
BATTLE CREEK   MOCLDY    17  12  80 SW7       30.25F WCI   8
6HR MIN TEMP:  12; 6HR MAX TEMP:  19;

BENTON HARBOR  PTCLDY    20  16  84 S7        30.26S WCI  11
6HR MIN TEMP:  12; 6HR MAX TEMP:  20;

COLDWATER*     CLOUDY    20  16  81 SW8       30.26F WCI  11
6HR MIN TEMP:   9; 6HR MAX TEMP:  20;

HILLSDALE*     CLOUDY    18  15  87 S3        30.25F
6HR MIN TEMP:   8; 6HR MAX TEMP:  18;

HOLLAND        MOCLDY    22  17  81 S8        30.24F WCI  12
6HR MIN TEMP:  19; 6HR MAX TEMP:  27;

GRAND RAPIDS   MOCLDY    20  15  81 S9        30.23F WCI   9
6HR MIN TEMP:  19; 6HR MAX TEMP:  20;

KALAMAZOO      MOCLDY    17  12  80 S6        30.26S WCI   9
6HR MIN TEMP:  14; 6HR MAX TEMP:  18;

STURGIS*       CLOUDY    18  16  93 CALM      30.26S
THREE RIVERS*  FAIR      18  15  86 SW6       30.27S WCI  10
6HR MIN TEMP:  14; 6HR MAX TEMP:  19;


$$
OHZ001>008-015>018-024>025-311300-
NORTHWEST OHIO

CITY           SKY/WX    TMP DP  RH WIND       PRES   REMARKS
DEFIANCE       CLOUDY    17  13  84 S5        30.33R WCI  10
6HR MIN TEMP:  15; 6HR MAX TEMP:  18;

FINDLAY        CLEAR     12   7  80 S7        30.32S WCI   1
6HR MIN TEMP:  11; 6HR MAX TEMP:  15;

TOLEDO EXPRESS CLOUDY    16  11  80 SW7       30.32S WCI   6
6HR MIN TEMP:   9; 6HR MAX TEMP:  16;

TOLEDO METCALF MOCLDY    16  11  80 S8        30.33F WCI   5
6HR MIN TEMP:  14; 6HR MAX TEMP:  17;

LIMA           FAIR      17  11  77 S9        30.31F WCI   6
6HR MIN TEMP:  15; 6HR MAX TEMP:  17;


$$
AND FOR LAKE MICHIGAN COASTAL AND OPEN LAKE BUOY OBSERVATIONS

STATION/POSITION TEMP    WIND        PRES    VSBY  WAVE
                 AIR SEA DIR/SP/G                  HT/PER
                 (F)     (DEG/KT/KT) (MB)    (MI)  (FT/S)
CALUMET HARBOR    27     210/  9/ 12   N/A
MICHIGAN CITY     24     150/ 10/ 13   N/A
SAINT JOSEPH      22     140/  6/ 12 1025.1S

$$
&&


USA.gov is the U.S. government's official web portal to all federal, state and local government web resources and services.